Weather History for PAGL - December, 2013

Change the Weather History Date:

Friday, December 20, 2013

  Actual Average Record
Temperature  
Mean Temperature 18 °F -  
Max Temperature 24 °F - - ()
Min Temperature 12 °F - - ()
Degree Days  
Heating Degree Days 48    
Moisture  
Dew Point 13 °F    
Average Humidity 82    
Maximum Humidity 100    
Minimum Humidity 62    
Precipitation  
Precipitation 0.01 in - - ()
Sea Level Pressure  
Sea Level Pressure 29.43 in    
Wind  
Wind Speed 10 mph (NE)    
Max Wind Speed 24 mph    
Max Gust Speed 30 mph    
Visibility 7 miles    
Events      
T = Trace of Precipitation, MM = Missing Value Source: NWS Daily Summary

Daily Weather History Graph

Daily Weather History Graph

Search for Another Location

Airport or City:

Trip Planner

Search our weather history database for the weather conditions in past years. The results will help you decide how hot, cold, wet, or windy it might be!

Date:

Astronomy

Dec. 20, 2013 Rise Set
Actual Time 11:53 AM AKST 3:46 PM AKST
Civil Twilight 10:30 AM AKST 5:09 PM AKST
Nautical Twilight 9:20 AM AKST 6:20 PM AKST
Astronomical Twilight 8:19 AM AKST 7:21 PM AKST
Moon 8:51 PM AKST (12/20) 12:27 PM AKST (12/20)
Length of Visible Light 6h 38m
Length of Day
3h 53m
Waning Gibbous, 89% of the Moon is Illuminated
Dec 20
Waning Gibbous
Dec 25
Last Quarter
Jan 1
New
Jan 7
First Quarter
Jan 15
Full

Hourly Weather History & Observations

Time (AKST) Temp. Windchill Dew Point Humidity Pressure Visibility Wind Dir Wind Speed Gust Speed Precip Events Conditions
12:16 AM 12.2 °F - 8.6 °F 85% 29.58 in 10.0 mi Calm Calm - N/A   Overcast
12:36 AM 12.2 °F 6.1 °F 8.6 °F 85% 29.57 in 10.0 mi SW 3.5 mph - N/A   Overcast
12:56 AM 12.2 °F 4.3 °F 6.8 °F 79% 29.57 in 10.0 mi West 4.6 mph - N/A   Overcast
1:16 AM 12.2 °F - 6.8 °F 79% 29.57 in 10.0 mi Calm Calm - N/A   Overcast
1:36 AM 15.8 °F 6.1 °F 12.2 °F 86% 29.57 in 10.0 mi NE 6.9 mph 16.1 mph N/A   Overcast
1:56 AM 14.0 °F - 3.2 °F 62% 29.57 in 10.0 mi Calm Calm - N/A   Overcast
2:16 AM 12.2 °F 6.1 °F 8.6 °F 85% 29.56 in 10.0 mi NNW 3.5 mph - N/A   Overcast
2:36 AM 12.2 °F 4.3 °F 8.6 °F 85% 29.56 in 10.0 mi WNW 4.6 mph - N/A   Overcast
2:56 AM 12.2 °F 6.1 °F 6.8 °F 79% 29.56 in 10.0 mi ENE 3.5 mph - N/A   Overcast
3:16 AM 15.8 °F - 6.8 °F 68% 29.55 in 10.0 mi Calm Calm - N/A   Overcast
3:36 AM 15.8 °F 8.6 °F 10.4 °F 79% 29.54 in 10.0 mi North 4.6 mph 17.3 mph N/A   Overcast
3:56 AM 15.8 °F -1.1 °F 8.6 °F 73% 29.54 in 10.0 mi NE 19.6 mph 23.0 mph N/A   Overcast
4:16 AM 15.8 °F -2.7 °F 8.6 °F 73% 29.53 in 10.0 mi NE 24.2 mph 28.8 mph N/A   Overcast
4:36 AM 15.8 °F 0.9 °F 10.4 °F 79% 29.52 in 10.0 mi NE 15.0 mph 21.9 mph N/A   Overcast
4:56 AM 15.8 °F -0.6 °F 8.6 °F 73% 29.51 in 10.0 mi NE 18.4 mph 25.3 mph N/A   Overcast
5:16 AM 15.8 °F 0.9 °F 10.4 °F 79% 29.51 in 10.0 mi NE 15.0 mph 20.7 mph N/A   Overcast
5:36 AM 15.8 °F -1.1 °F 8.6 °F 73% 29.51 in 10.0 mi NNE 19.6 mph 25.3 mph N/A   Overcast
5:56 AM 15.8 °F -1.5 °F 10.4 °F 79% 29.51 in 10.0 mi NE 20.7 mph - N/A   Overcast
6:16 AM 17.6 °F 3.7 °F 10.4 °F 73% 29.51 in 10.0 mi NE 13.8 mph 18.4 mph N/A   Overcast
6:36 AM 17.6 °F 2.2 °F 10.4 °F 73% 29.50 in 10.0 mi NE 17.3 mph 23.0 mph N/A   Overcast
6:56 AM 17.6 °F 3.7 °F 10.4 °F 73% 29.51 in 10.0 mi NNE 13.8 mph 20.7 mph N/A   Overcast
7:16 AM 15.8 °F -0.6 °F 8.6 °F 73% 29.50 in 9.0 mi NE 18.4 mph 21.9 mph N/A   Overcast
7:36 AM 15.8 °F -1.9 °F 10.4 °F 79% 29.49 in 8.0 mi NE 21.9 mph 27.6 mph 0.01 in   Overcast
7:56 AM 15.8 °F 0.9 °F 10.4 °F 79% 29.49 in 10.0 mi NE 15.0 mph 24.2 mph 0.01 in   Overcast
8:16 AM 15.8 °F 0.3 °F 10.4 °F 79% 29.49 in 6.0 mi NNE 16.1 mph - N/A   Overcast
8:36 AM 15.8 °F 2.1 °F 10.4 °F 79% 29.49 in 7.0 mi NNE 12.7 mph 23.0 mph N/A   Overcast
8:56 AM 15.8 °F -0.2 °F 10.4 °F 79% 29.48 in 3.0 mi NE 17.3 mph 26.5 mph N/A   Overcast
9:16 AM 15.8 °F -0.6 °F 12.2 °F 86% 29.48 in 2.5 mi NE 18.4 mph 21.9 mph N/A   Overcast
9:36 AM 15.8 °F -1.5 °F 12.2 °F 86% 29.47 in 2.5 mi NE 20.7 mph 28.8 mph N/A   Overcast
9:56 AM 17.6 °F 0.9 °F 8.6 °F 68% 29.46 in 6.0 mi NE 20.7 mph 26.5 mph N/A   Overcast
10:16 AM 17.6 °F 2.2 °F 12.2 °F 79% 29.46 in 10.0 mi NE 17.3 mph 25.3 mph N/A   Overcast
10:36 AM 17.6 °F 2.7 °F 12.2 °F 79% 29.47 in 10.0 mi NE 16.1 mph 21.9 mph N/A   Overcast
10:56 AM 17.6 °F 2.7 °F 12.2 °F 79% 29.47 in 10.0 mi NE 16.1 mph 21.9 mph N/A   Overcast
11:16 AM 17.6 °F 3.2 °F 12.2 °F 79% 29.45 in 10.0 mi NNE 15.0 mph - N/A   Overcast
11:36 AM 17.6 °F 0.9 °F 12.2 °F 79% 29.44 in 10.0 mi ENE 20.7 mph 26.5 mph N/A   Overcast
11:56 AM 17.6 °F 0.9 °F 10.4 °F 73% 29.44 in 10.0 mi ENE 20.7 mph 29.9 mph N/A   Overcast
12:16 PM 17.6 °F 1.3 °F 12.2 °F 79% 29.44 in 10.0 mi ENE 19.6 mph 24.2 mph N/A   Overcast
12:36 PM 17.6 °F 3.2 °F 14.0 °F 86% 29.43 in 10.0 mi ENE 15.0 mph - N/A   Overcast
12:56 PM 17.6 °F 1.7 °F 12.2 °F 79% 29.43 in 10.0 mi East 18.4 mph 23.0 mph N/A   Overcast
1:16 PM 17.6 °F 0.9 °F 15.8 °F 93% 29.42 in 7.0 mi East 20.7 mph 29.9 mph N/A   Overcast
1:36 PM 19.4 °F 3.6 °F 14.0 °F 80% 29.41 in 10.0 mi ENE 19.6 mph - N/A   Overcast
1:56 PM 19.4 °F 5.0 °F 12.2 °F 74% 29.40 in 10.0 mi ENE 16.1 mph - N/A   Overcast
2:16 PM 19.4 °F 4.1 °F 15.8 °F 86% 29.39 in 10.0 mi ENE 18.4 mph 27.6 mph N/A   Overcast
2:36 PM 19.4 °F 3.6 °F 14.0 °F 80% 29.39 in 10.0 mi ENE 19.6 mph 24.2 mph N/A   Overcast
2:56 PM 19.4 °F 4.1 °F 15.8 °F 86% 29.39 in 10.0 mi East 18.4 mph 25.3 mph N/A   Overcast
3:16 PM 19.4 °F 4.5 °F 15.8 °F 86% 29.38 in 10.0 mi East 17.3 mph 20.7 mph N/A   Overcast
3:36 PM 19.4 °F 6.6 °F 17.6 °F 93% 29.38 in 5.0 mi East 12.7 mph 24.2 mph N/A   Overcast
3:56 PM 19.4 °F 6.0 °F 17.6 °F 93% 29.37 in 5.0 mi ENE 13.8 mph 20.7 mph N/A   Overcast
4:16 PM 19.4 °F 7.2 °F 14.0 °F 80% 29.36 in 10.0 mi NE 11.5 mph 17.3 mph N/A   Overcast
4:36 PM 19.4 °F 6.6 °F 19.4 °F 100% 29.35 in 5.0 mi ENE 12.7 mph - N/A   Overcast
4:56 PM 21.2 °F 6.4 °F 17.6 °F 86% 29.34 in 2.5 mi ENE 18.4 mph 23.0 mph N/A   Overcast
5:16 PM 21.2 °F 9.5 °F 17.6 °F 86% 29.34 in 3.0 mi ENE 11.5 mph 19.6 mph N/A   Overcast
5:36 PM 21.2 °F 8.9 °F 17.6 °F 86% 29.35 in 2.0 mi ENE 12.7 mph 21.9 mph N/A   Overcast
5:56 PM 21.2 °F 12.6 °F 17.6 °F 86% 29.35 in 1.8 mi ENE 6.9 mph 16.1 mph N/A   Overcast
6:16 PM 21.2 °F 14.9 °F 17.6 °F 86% 29.35 in 1.5 mi North 4.6 mph - N/A   Overcast
6:36 PM 21.2 °F 14.9 °F 17.6 °F 86% 29.35 in 2.5 mi NNW 4.6 mph - N/A   Overcast
6:56 PM 21.2 °F 11.7 °F 17.6 °F 86% 29.34 in 3.0 mi ENE 8.1 mph 17.3 mph N/A   Overcast
7:16 PM 21.2 °F 10.1 °F 19.4 °F 93% 29.33 in 1.8 mi NNE 10.4 mph - N/A   Overcast
7:36 PM 21.2 °F 11.7 °F 17.6 °F 86% 29.32 in 2.0 mi NNE 8.1 mph - N/A   Overcast
7:56 PM 21.2 °F 11.7 °F 15.8 °F 80% 29.33 in 2.5 mi NNE 8.1 mph - N/A   Overcast
8:16 PM 21.2 °F 14.9 °F 17.6 °F 86% 29.32 in 2.5 mi NNE 4.6 mph - N/A   Overcast
8:36 PM 21.2 °F 14.9 °F 17.6 °F 86% 29.32 in 2.0 mi East 4.6 mph - N/A   Overcast
8:56 PM 21.2 °F - 17.6 °F 86% 29.31 in 1.8 mi Calm Calm - N/A   Overcast
9:16 PM 21.2 °F 13.6 °F 19.4 °F 93% 29.30 in 2.5 mi ENE 5.8 mph - N/A   Overcast
9:36 PM 23.0 °F 14.7 °F 19.4 °F 86% 29.30 in 8.0 mi ENE 6.9 mph - N/A   Overcast
9:56 PM 23.0 °F 11.7 °F 19.4 °F 86% 29.29 in 4.0 mi East 11.5 mph - N/A   Mostly Cloudy
10:16 PM 23.0 °F 13.1 °F 19.4 °F 86% 29.29 in 8.0 mi East 9.2 mph - N/A   Overcast
10:36 PM 23.0 °F 12.4 °F 17.6 °F 80% 29.29 in 6.0 mi East 10.4 mph - N/A   Overcast
10:56 PM 23.0 °F 15.8 °F 19.4 °F 86% 29.29 in 5.0 mi East 5.8 mph - N/A   Overcast
11:16 PM 23.0 °F 14.7 °F 19.4 °F 86% 29.29 in 5.0 mi East 6.9 mph - N/A   Overcast
11:36 PM 23.0 °F 10.1 °F 19.4 °F 86% 29.28 in 2.5 mi East 15.0 mph - N/A   Overcast
11:56 PM 24.8 °F 11.9 °F 19.4 °F 80% 29.28 in 1.5 mi East 16.1 mph 20.7 mph N/A   Overcast